Regional Weather Roundup
Issued by NWS

Home | Current Version | Previous Version | Graphics & Text | Print | Product List | Glossary Off
Versions: 1 2 3 4 5 6 7 8 9 10 11 12 13 14 15 16 17 18 19 20 21 22 23 24 25 26 27 28 29 30 31 32 33 34 35 36 37 38 39 40 41 42 43 44 45 46 47 48 49 50

000
ASUS43 KLSX 021859
RWRMO

WEATHER SUMMARY FOR MISSOURI
NATIONAL WEATHER SERVICE SPRINGFIELD MO
200 PM CDT THU JUL 02 2015

NOTE: "FAIR" INDICATES FEW OR NO CLOUDS BELOW 12,000 FEET WITH NO
       SIGNIFICANT WEATHER AND/OR OBSTRUCTIONS TO VISIBILITY.
       CURRENT SKY AND/OR WEATHER CONDITIONS ARE NOT AVAILABLE FOR
       CHILLICOTHE AND FARMINGTON.

MOZ001>031-035>038-043-044-053-054-022000-
...NORTHERN AND WESTERN MISSOURI...

CITY           SKY/WX    TMP DP  RH WIND       PRES   REMARKS
KANSAS CTY INT DRIZZLE   70  67  90 NE6       29.95R
KANSAS C DTWN  CLOUDY    72  67  84 E8        29.93R
LEE`S SUMMIT   CLOUDY    72  67  84 E8        29.94S
ST JOSEPH      CLOUDY    72  66  81 SE6       29.94R
CHILLICOTHE      N/A     72  63  73 E5        29.97R
KIRKSVILLE     CLOUDY    73  59  61 NE10      29.96S

$$
MOZ066>068-077>081-088>096-101>105-022000-
...SOUTHWEST MISSOURI...

CITY           SKY/WX    TMP DP  RH WIND       PRES   REMARKS
SPRINGFIELD    PTSUNNY   83  73  72 N8        29.88S
JOPLIN         PTSUNNY   84  74  71 N9G17     29.88F HX  91

$$
MOZ032>034-039>042-045>050-055>058-069>072-022000-
...CENTRAL MISSOURI...

CITY           SKY/WX    TMP DP  RH WIND       PRES   REMARKS
COLUMBIA       CLOUDY    76  67  73 NE9       29.91F
JEFFERSON CITY CLOUDY    73  66  78 E7        29.90F
ROLLA          CLOUDY    72  69  90 N10       29.90R
SEDALIA        CLOUDY    77  68  73 NE7       29.92F
WHITEMAN AFB   CLOUDY    75  68  78 NE9       29.91R
OSAGE BEACH    CLOUDY    73  68  83 NE8       29.90F

$$
MOZ051-052-059>065-022000-
...EAST CENTRAL MISSOURI...

CITY           SKY/WX    TMP DP  RH WIND       PRES   REMARKS
ST LOUIS INTL  PTSUNNY   76  63  64 NE7       29.91F
SPIRIT OF STL  CLOUDY    74  64  71 CALM      29.90F
ST CHARLES     PTSUNNY   76  65  68 NE10      29.90F

$$
MOZ072>076-082>087-097>100-106>115-022000-
...SOUTH CENTRAL AND SOUTHEAST MISSOURI...

CITY           SKY/WX    TMP DP  RH WIND       PRES   REMARKS
CAPE GIRARDEAU RAIN      78  73  84 W10       29.85S
FARMINGTON     CLOUDY    73  70  88 N8        29.93S
POPLAR BLUFF   PTSUNNY   84  70  62 NW6       29.84F
WEST PLAINS    PTSUNNY   83  72  69 W9        29.89S

$$


USA.gov is the U.S. government's official web portal to all federal, state and local government web resources and services.